Weather History for Barcelona / Aeropuerto, Spain

Change the Weather History Date:

Thursday, May 16, 2013

  Actual Average Record
Temperature  
Mean Temperature 56 °F -  
Max Temperature 61 °F 72 °F - ()
Min Temperature 51 °F 60 °F - ()
Degree Days  
Heating Degree Days 9    
Growing Degree Days 6 (Base 50)    
Moisture  
Dew Point 49 °F    
Average Humidity 73    
Maximum Humidity 94    
Minimum Humidity 42    
Precipitation  
Precipitation 0.04 in 0.06 in - ()
Sea Level Pressure  
Sea Level Pressure 29.53 in    
Wind  
Wind Speed 9 mph ()    
Max Wind Speed 18 mph    
Max Gust Speed 21 mph    
Visibility 6.8 miles    
Events Rain , Thunderstorm    
T = Trace of Precipitation, MM = Missing Value Source: Averaged Metar Reports

Daily Weather History Graph

Daily Weather History Graph

Search for Another Location

Airport:

Trip Planner

Search our weather history database for the weather conditions in past years. The results will help you decide how hot, cold, wet, or windy it might be!

Date:

Astronomy

May. 16, 2013 Rise Set
Actual Time 6:32 AM CEST 9:04 PM CEST
Civil Twilight 6:00 AM CEST 9:36 PM CEST
Nautical Twilight 5:21 AM CEST 10:15 PM CEST
Astronomical Twilight 4:37 AM CEST 11:00 PM CEST
Moon 11:51 AM CEST (5/16) 1:16 AM CEST (5/16)
Length of Visible Light 15h 35m
Length of Day
14h 32m
Waxing Crescent, 33% of the Moon is Illuminated
May 16
Waxing Crescent
May 18
First Quarter
May 25
Full
May 31
Last Quarter
Jun 8
New

Hourly Weather History & Observations

Time (CEST) Temp. Dew Point Humidity Pressure Visibility Wind Dir Wind Speed Gust Speed Precip Events Conditions
12:00 AM 57.2 °F 55.4 °F 94% 29.56 in 6.2 mi NW 5.8 mph - N/A Rain Light Rain
12:30 AM 57.2 °F 55.4 °F 94% 29.56 in 6.2 mi NW 11.5 mph - N/A Rain Light Rain
1:00 AM 57.2 °F 51.8 °F 82% 29.56 in 6.2 mi NW 8.1 mph - N/A Rain Light Rain
1:30 AM 55.4 °F 51.8 °F 88% 29.56 in 6.2 mi NNW 6.9 mph - N/A Rain Light Rain
2:00 AM 54 °F 51 °F 86% 29.55 in 15 mi North 5.8 mph - - Rain Light Rain
2:00 AM 55.4 °F 51.8 °F 88% 29.53 in 6.2 mi NNW 4.6 mph - N/A Rain Light Rain
2:30 AM 55.4 °F 51.8 °F 88% 29.53 in 6.2 mi WNW 6.9 mph - N/A Rain Light Rain
3:00 AM 55.4 °F 50.0 °F 82% 29.53 in 6.2 mi WNW 8.1 mph - N/A   Mostly Cloudy
3:30 AM 55.4 °F 50.0 °F 82% 29.50 in 6.2 mi NW 10.4 mph - N/A   Mostly Cloudy
4:00 AM 55.4 °F 48.2 °F 77% 29.50 in 6.2 mi NW 10.4 mph - N/A   Mostly Cloudy
4:30 AM 55.4 °F 48.2 °F 77% 29.50 in 6.2 mi NW 10.4 mph - N/A   Mostly Cloudy
5:00 AM 55.4 °F 46.4 °F 72% 29.50 in 6.2 mi WNW 11.5 mph - N/A   Mostly Cloudy
5:30 AM 53.6 °F 48.2 °F 82% 29.47 in 6.2 mi WNW 13.8 mph - N/A   Mostly Cloudy
6:00 AM 53.6 °F 46.4 °F 77% 29.50 in 6.2 mi WNW 12.7 mph - N/A Rain Light Rain
6:30 AM 53.6 °F 46.4 °F 77% 29.50 in 6.2 mi NW 10.4 mph - N/A   Mostly Cloudy
7:00 AM 53.6 °F 46.4 °F 77% 29.50 in 6.2 mi NW 10.4 mph - N/A Rain Light Rain
7:30 AM 51.8 °F 46.4 °F 82% 29.50 in 6.2 mi NW 12.7 mph - N/A Rain Light Rain
8:00 AM 51 °F 46 °F 76% 29.52 in 10 mi NNW 9.2 mph - - Rain Light Rain
8:00 AM 51.8 °F 46.4 °F 82% 29.50 in 6.2 mi NW 12.7 mph - N/A Rain Rain
8:30 AM 51.8 °F 46.4 °F 82% 29.50 in 6.2 mi NW 12.7 mph - N/A   Drizzle
9:00 AM 51.8 °F 46.4 °F 82% 29.50 in 6.2 mi NNW 10.4 mph - N/A   Light Drizzle
9:30 AM 53.6 °F 46.4 °F 77% 29.50 in 6.2 mi NW 10.4 mph - N/A   Scattered Clouds
10:00 AM 53.6 °F 46.4 °F 77% 29.53 in 6.2 mi NW 10.4 mph - N/A   Scattered Clouds
10:30 AM 55.4 °F 44.6 °F 67% 29.53 in 6.2 mi NW 11.5 mph - N/A   Scattered Clouds
11:00 AM 55.4 °F 46.4 °F 72% 29.53 in 6.2 mi NW 9.2 mph - N/A   Partly Cloudy
11:30 AM 57.2 °F 48.2 °F 72% 29.53 in 6.2 mi NNW 12.7 mph - N/A   Partly Cloudy
12:00 PM 57.2 °F 48.2 °F 72% 29.53 in 6.2 mi NNW 9.2 mph - N/A   Partly Cloudy
12:30 PM 60.8 °F 48.2 °F 63% 29.53 in 6.2 mi North 10.4 mph - N/A   Scattered Clouds
1:00 PM 59.0 °F 48.2 °F 67% 29.53 in 6.2 mi NNW 8.1 mph 20.7 mph N/A   Mostly Cloudy
1:30 PM 59.0 °F 46.4 °F 63% 29.53 in 6.2 mi North 10.4 mph - N/A   Mostly Cloudy
2:00 PM 61 °F 44 °F 42% 29.55 in 16 mi NNE 9.2 mph - -   Partly Cloudy
2:00 PM 60.8 °F 44.6 °F 55% 29.53 in 6.2 mi North 10.4 mph - N/A   Scattered Clouds
2:30 PM 57.2 °F 50.0 °F 77% 29.53 in 6.2 mi ESE 10.4 mph - N/A   Scattered Clouds
3:00 PM 59.0 °F 50.0 °F 72% 29.53 in 6.2 mi ESE 9.2 mph - N/A   Mostly Cloudy
3:30 PM 59.0 °F 50.0 °F 72% 29.53 in 6.2 mi ESE 6.9 mph - N/A   Mostly Cloudy
4:00 PM 59.0 °F 50.0 °F 72% 29.53 in 6.2 mi ESE 8.1 mph - N/A   Mostly Cloudy
4:30 PM 59.0 °F 48.2 °F 67% 29.53 in 6.2 mi SE 5.8 mph - N/A   Scattered Clouds
5:00 PM 60.8 °F 48.2 °F 63% 29.53 in 6.2 mi South 6.9 mph - N/A   Partly Cloudy
5:30 PM 60.8 °F 50.0 °F 68% 29.53 in 6.2 mi SSE 6.9 mph - N/A   Partly Cloudy
6:00 PM 60.8 °F 48.2 °F 63% 29.53 in 6.2 mi South 8.1 mph - N/A   Partly Cloudy
6:30 PM 60.8 °F 48.2 °F 63% 29.53 in 6.2 mi South 8.1 mph - N/A   Partly Cloudy
7:00 PM 60.8 °F 48.2 °F 63% 29.53 in 6.2 mi SSE 8.1 mph - N/A   Partly Cloudy
7:30 PM 60.8 °F 46.4 °F 59% 29.53 in 6.2 mi SSW 6.9 mph - N/A   Partly Cloudy
8:00 PM 60 °F 47 °F 52% 29.55 in 19 mi South 6.9 mph - -   Scattered Clouds
8:00 PM 60.8 °F 50.0 °F 68% 29.53 in 6.2 mi South 6.9 mph - N/A   Partly Cloudy
8:30 PM 60.8 °F 50.0 °F 68% 29.53 in 6.2 mi South 5.8 mph - N/A   Scattered Clouds
9:00 PM 60.8 °F 48.2 °F 63% 29.53 in 6.2 mi SW 13.8 mph - N/A   Scattered Clouds
9:30 PM 60.8 °F 48.2 °F 63% 29.56 in 6.2 mi SW 13.8 mph - N/A   Partly Cloudy
10:00 PM 60.8 °F 48.2 °F 63% 29.56 in 6.2 mi SW 13.8 mph - N/A   Partly Cloudy
10:30 PM 60.8 °F 51.8 °F 72% 29.56 in 3.7 mi SW 18.4 mph - N/A Rain , Thunderstorm Thunderstorms and Rain
11:00 PM 59.0 °F 53.6 °F 82% 29.56 in 3.7 mi WSW 15.0 mph - N/A Rain , Thunderstorm Thunderstorms and Rain
11:30 PM 59.0 °F 53.6 °F 82% 29.56 in 6.2 mi SW 12.7 mph - N/A   Light Drizzle